Grayling, MI

5:09 PM EDT on May 28, 2017 (GMT -0400)
Grayling

Weather History for KGOV - May, 2013

Change the Weather History Date:

Tuesday, May 28, 2013

  Actual Average (KHTL) Record (KHTL)
Temperature  
Mean Temperature 56 °F -  
Max Temperature 61 °F 72 °F 90 °F (1931)
Min Temperature 53 °F 46 °F 27 °F (2008)
Degree Days  
Heating Degree Days 8    
Growing Degree Days 6 (Base 50)    
Moisture  
Dew Point 52 °F    
Average Humidity 90    
Maximum Humidity 100    
Minimum Humidity 48    
Precipitation  
Precipitation 0.00 in - - ()
Sea Level Pressure  
Sea Level Pressure 29.88 in    
Wind  
Wind Speed 7 mph (ESE)    
Max Wind Speed 13 mph    
Max Gust Speed 16 mph    
Visibility 6 miles    
Events Fog , Rain    
Averages and records for this station are not official NWS values.
T = Trace of Precipitation, MM = Missing Value Source: NWS Daily Summary

Daily Weather History Graph

Daily Weather History Graph

Search for Another Location

Airport or City:

Trip Planner

Search our weather history database for the weather conditions in past years. The results will help you decide how hot, cold, wet, or windy it might be!

Date:

Astronomy

May. 28, 2013 Rise Set
Actual Time 5:58 AM EDT 9:14 PM EDT
Civil Twilight 5:23 AM EDT 9:49 PM EDT
Nautical Twilight 4:37 AM EDT 10:36 PM EDT
Astronomical Twilight 3:40 AM EDT 11:33 PM EDT
Moon No Moon Rise 9:50 AM EDT
Length of Visible Light 16h 26m
Length of Day
15h 15m
Waning Gibbous, 83% of the Moon is Illuminated
May 28
Waning Gibbous
May 31
Last Quarter
Jun 8
New
Jun 16
First Quarter
Jun 23
Full

Hourly Weather History & Observations

Time (EDT) Temp. Dew Point Humidity Pressure Visibility Wind Dir Wind Speed Gust Speed Precip Events Conditions
12:15 AM 55.9 °F 36.5 °F 48% 30.02 in 10.0 mi East 8.1 mph - N/A   Scattered Clouds
12:35 AM 54.0 °F 34.9 °F 49% 30.02 in 10.0 mi East 8.1 mph - N/A   Scattered Clouds
12:54 AM 53.6 °F 35.1 °F 50% 30.01 in 10.0 mi East 6.9 mph - N/A   Scattered Clouds
1:15 AM 53.6 °F 35.1 °F 50% 30.01 in 10.0 mi East 8.1 mph - N/A   Overcast
1:35 AM 53.6 °F 35.6 °F 51% 30.01 in 10.0 mi ESE 10.4 mph - N/A   Overcast
1:54 AM 53.6 °F 37.2 °F 54% 30.00 in 10.0 mi ESE 11.5 mph - N/A   Overcast
2:15 AM 53.6 °F 39.7 °F 59% 30.00 in 10.0 mi SE 11.5 mph - N/A   Overcast
2:35 AM 53.6 °F 41.0 °F 62% 29.99 in 10.0 mi ESE 9.2 mph - N/A   Overcast
2:54 AM 53.6 °F 42.3 °F 65% 29.97 in 10.0 mi East 9.2 mph - N/A   Overcast
3:15 AM 53.6 °F 43.3 °F 68% 29.96 in 10.0 mi ESE 11.5 mph 16.1 mph N/A   Overcast
3:35 AM 53.6 °F 44.6 °F 72% 29.96 in 10.0 mi SE 10.4 mph - N/A   Overcast
3:54 AM 53.6 °F 44.4 °F 71% 29.96 in 10.0 mi SE 8.1 mph - N/A   Overcast
4:15 AM 53.6 °F 44.8 °F 72% 29.95 in 10.0 mi ESE 6.9 mph - N/A   Overcast
4:35 AM 53.6 °F 45.7 °F 75% 29.95 in 10.0 mi ESE 6.9 mph - N/A   Overcast
4:55 AM 53.6 °F 46.4 °F 77% 29.95 in 10.0 mi ESE 8.1 mph - N/A   Overcast
5:15 AM 53.6 °F 46.8 °F 78% 29.95 in 10.0 mi SE 6.9 mph - N/A   Overcast
5:35 AM 53.6 °F 47.3 °F 79% 29.96 in 10.0 mi SSE 8.1 mph - N/A   Overcast
5:55 AM 53.6 °F 49.1 °F 85% 29.94 in 10.0 mi ESE 8.1 mph - N/A   Overcast
6:15 AM 53.6 °F 50.4 °F 89% 29.95 in 10.0 mi ESE 8.1 mph - N/A   Overcast
6:34 AM 53.6 °F 50.9 °F 91% 29.94 in 10.0 mi ESE 6.9 mph - N/A   Overcast
6:55 AM 53.6 °F 51.3 °F 92% 29.95 in 10.0 mi SE 9.2 mph - N/A   Overcast
7:15 AM 53.6 °F 51.3 °F 92% 29.94 in 10.0 mi ESE 9.2 mph - N/A   Overcast
7:34 AM 53.6 °F 51.3 °F 92% 29.94 in 10.0 mi ESE 6.9 mph - N/A   Overcast
7:55 AM 53.6 °F 51.8 °F 94% 29.93 in 10.0 mi ESE 10.4 mph - N/A   Overcast
8:15 AM 53.6 °F 52.0 °F 94% 29.94 in 7.0 mi ESE 9.2 mph - N/A   Overcast
8:34 AM 53.6 °F 52.5 °F 96% 29.94 in 5.0 mi East 9.2 mph - N/A   Overcast
8:55 AM 53.6 °F 52.9 °F 97% 29.93 in 3.0 mi ESE 10.4 mph - N/A   Overcast
9:15 AM 53.6 °F 53.2 °F 99% 29.93 in 3.0 mi ESE 8.1 mph - N/A   Overcast
9:34 AM 53.6 °F 53.1 °F 98% 29.92 in 4.0 mi ESE 10.4 mph - N/A   Overcast
9:55 AM 53.6 °F 53.2 °F 99% 29.89 in 1.5 mi East 12.7 mph - N/A   Overcast
10:15 AM 53.6 °F 52.9 °F 97% 29.89 in 4.0 mi ESE 9.2 mph - N/A   Overcast
10:34 AM 53.6 °F 52.3 °F 95% 29.90 in 5.0 mi SE 9.2 mph - N/A   Overcast
10:55 AM 53.6 °F 52.2 °F 95% 29.90 in 5.0 mi SE 9.2 mph - N/A Rain Rain
11:15 AM 53.6 °F 52.9 °F 97% 29.90 in 5.0 mi ESE 9.2 mph - N/A   Light Drizzle
11:34 AM 53.6 °F 53.2 °F 99% 29.90 in 4.0 mi ESE 8.1 mph - N/A   Drizzle
11:55 AM 53.6 °F 53.6 °F 100% 29.89 in 3.0 mi East 6.9 mph - N/A Rain Light Rain
12:15 PM 53.6 °F 53.6 °F 100% 29.88 in 3.0 mi East 5.8 mph - N/A Rain Heavy Rain
12:35 PM 53.6 °F 53.6 °F 100% 29.85 in 3.0 mi East 11.5 mph - N/A Rain Rain
12:55 PM 53.6 °F 53.6 °F 100% 29.87 in 5.0 mi ESE 9.2 mph - N/A Rain Rain
1:14 PM 54.0 °F 54.0 °F 100% 29.87 in 5.0 mi SE 6.9 mph - N/A Rain Rain
1:35 PM 55.6 °F 55.6 °F 100% 29.85 in 5.0 mi East 9.2 mph - N/A Rain Light Rain
1:55 PM 55.4 °F 55.4 °F 100% 29.84 in 10.0 mi ESE 9.2 mph - N/A   Light Drizzle
2:14 PM 55.9 °F 55.9 °F 100% 29.82 in 10.0 mi ESE 12.7 mph - N/A   Overcast
2:35 PM 55.9 °F 55.8 °F 99% 29.85 in 10.0 mi Calm Calm - N/A   Overcast
2:55 PM 55.9 °F 55.9 °F 100% 29.85 in 5.0 mi SE 3.5 mph - N/A Rain Rain
3:14 PM 56.1 °F 56.1 °F 100% 29.84 in 4.0 mi ESE 8.1 mph - N/A Rain Light Rain
3:35 PM 56.3 °F 56.3 °F 100% 29.83 in 10.0 mi ESE 8.1 mph - N/A   Overcast
3:55 PM 57.4 °F 57.4 °F 100% 29.83 in 10.0 mi ESE 8.1 mph - N/A   Overcast
4:14 PM 57.6 °F 57.6 °F 100% 29.83 in 7.0 mi ESE 5.8 mph - N/A Rain Rain
4:35 PM 57.4 °F 57.4 °F 100% 29.83 in 4.0 mi SSE 4.6 mph - N/A Rain Light Rain
4:55 PM 58.5 °F 58.5 °F 100% 29.83 in 5.0 mi SSE 4.6 mph - N/A   Overcast
5:15 PM 58.5 °F 58.5 °F 100% 29.82 in 7.0 mi Calm Calm - N/A   Overcast
5:35 PM 58.5 °F 58.5 °F 100% 29.81 in 5.0 mi SSE 3.5 mph - N/A   Overcast
5:55 PM 58.5 °F 58.5 °F 100% 29.81 in 4.0 mi SE 4.6 mph - N/A   Overcast
6:15 PM 58.5 °F 58.5 °F 100% 29.81 in 4.0 mi Calm Calm - N/A   Overcast
6:35 PM 58.5 °F 58.5 °F 100% 29.81 in 3.0 mi ESE 3.5 mph - N/A   Overcast
6:54 PM 58.8 °F 58.8 °F 100% 29.80 in 3.0 mi ESE 3.5 mph - N/A   Overcast
7:15 PM 59.9 °F 59.9 °F 100% 29.80 in 2.5 mi SE 4.6 mph - N/A   Overcast
7:35 PM 59.4 °F 59.4 °F 100% 29.81 in 2.5 mi Calm Calm - N/A   Overcast
7:54 PM 59.0 °F 59.0 °F 100% 29.81 in 2.0 mi Calm Calm - N/A   Overcast
8:15 PM 59.9 °F 59.9 °F 100% 29.80 in 1.2 mi Calm Calm - N/A   Overcast
8:34 PM 59.9 °F 59.9 °F 100% 29.80 in 0.5 mi ESE 3.5 mph - N/A Fog Fog
8:55 PM 59.9 °F 59.9 °F 100% 29.80 in 0.5 mi East 3.5 mph - N/A Fog Fog
9:15 PM 59.9 °F 59.9 °F 100% 29.79 in 1.2 mi Calm Calm - N/A   Overcast
9:34 PM 59.9 °F 59.9 °F 100% 29.78 in 1.0 mi ESE 3.5 mph - N/A   Overcast
9:55 PM 59.9 °F 59.9 °F 100% 29.78 in 0.8 mi ESE 3.5 mph - N/A   Overcast
10:14 PM 59.9 °F 59.9 °F 100% 29.79 in 0.5 mi Calm Calm - N/A Fog Fog
10:35 PM 59.9 °F 59.9 °F 100% 29.79 in 0.5 mi Calm Calm - N/A Fog Fog
10:55 PM 60.1 °F 60.1 °F 100% 29.79 in 0.5 mi ESE 3.5 mph - N/A Fog Fog
11:15 PM 60.1 °F 60.1 °F 100% 29.79 in 1.0 mi Calm Calm - N/A   Overcast
11:35 PM 59.9 °F 59.9 °F 100% 29.79 in 1.2 mi Calm Calm - N/A   Overcast
11:55 PM 61.0 °F 61.0 °F 100% 29.78 in 1.5 mi Calm Calm - N/A   Overcast